Cyclone, PA

6:55 AM EDT on August 30, 2016 (GMT -0400)
Bradford Regional

Weather History for KBFD - September, 2013

Change the Weather History Date:

Friday, September 20, 2013

  Actual Average Record
Temperature  
Mean Temperature 64 °F 55 °F  
Max Temperature 80 °F 67 °F 81 °F (1978)
Min Temperature 48 °F 44 °F 25 °F (1979)
Degree Days  
Heating Degree Days 1 6  
Month to date heating degree days 141 69  
Since 1 July heating degree days 277 222  
Cooling Degree Days 0 0  
Month to date cooling degree days 30 13  
Year to date cooling degree days 325 190  
Growing Degree Days 13 (Base 50)    
Moisture  
Dew Point 52 °F    
Average Humidity 70    
Maximum Humidity 86    
Minimum Humidity 54    
Precipitation  
Precipitation 0.00 in 0.14 in 0.74 in (1963)
Month to date precipitation 1.42 2.61  
Year to date precipitation 22.83 32.56  
Sea Level Pressure  
Sea Level Pressure 30.03 in    
Wind  
Wind Speed 6 mph (SSE)    
Max Wind Speed 15 mph    
Max Gust Speed 20 mph    
Visibility 4 miles    
Events Fog    
T = Trace of Precipitation, MM = Missing Value Source: NWS Daily Summary

Daily Weather History Graph

Daily Weather History Graph

Search for Another Location

Airport or City:

Trip Planner

Search our weather history database for the weather conditions in past years. The results will help you decide how hot, cold, wet, or windy it might be!

Date:

Astronomy

Sep. 20, 2013 Rise Set
Actual Time 7:00 AM EDT 7:14 PM EDT
Civil Twilight 6:32 AM EDT 7:42 PM EDT
Nautical Twilight 5:59 AM EDT 8:15 PM EDT
Astronomical Twilight 5:26 AM EDT 8:48 PM EDT
Moon 7:45 PM EDT (9/20) 8:14 AM EDT (9/20)
Length of Visible Light 13h 10m
Length of Day
12h 14m
Full, 98% of the Moon is Illuminated
Sep 20
Full
Sep 26
Last Quarter
Oct 4
New
Oct 11
First Quarter
Oct 18
Full

Hourly Weather History & Observations

Time (EDT) Temp. Dew Point Humidity Pressure Visibility Wind Dir Wind Speed Gust Speed Precip Events Conditions
12:27 AM 52.0 °F 46.9 °F 83% 30.09 in 0.8 mi Calm Calm - N/A   Haze
12:38 AM 51.1 °F 46.9 °F 86% 30.09 in 1.0 mi ESE 4.6 mph - N/A   Clear
12:53 AM 52.0 °F 46.9 °F 83% 30.06 in 1.2 mi SE 3.5 mph - N/A   Haze
1:13 AM 52.0 °F 48.0 °F 86% 30.09 in 2.5 mi Calm Calm - N/A   Clear
1:36 AM 52.0 °F 46.0 °F 80% 30.09 in 2.5 mi Calm Calm - N/A   Haze
1:38 AM 52.0 °F 46.9 °F 83% 30.09 in 1.0 mi Calm Calm - N/A   Haze
1:43 AM 52.0 °F 46.9 °F 83% 30.09 in 0.2 mi Calm Calm - N/A   Haze
1:53 AM 51.1 °F 46.0 °F 83% 30.07 in 0.5 mi Calm Calm - N/A   Haze
1:59 AM 52.0 °F 46.9 °F 83% 30.09 in 1.5 mi Calm Calm - N/A   Haze
2:09 AM 51.1 °F 46.9 °F 86% 30.09 in 0.5 mi Calm Calm - N/A Fog Fog
2:21 AM 52.0 °F 46.9 °F 83% 30.09 in 1.0 mi Calm Calm - N/A   Haze
2:28 AM 51.1 °F 46.0 °F 83% 30.09 in 0.5 mi Calm Calm - N/A   Haze
2:37 AM 53.1 °F 46.9 °F 80% 30.09 in 1.2 mi Calm Calm - N/A   Haze
2:43 AM 53.1 °F 46.9 °F 80% 30.09 in 3.0 mi Calm Calm - N/A   Haze
2:50 AM 51.8 °F 46.4 °F 82% 30.09 in 1.2 mi Calm Calm - N/A   Haze
2:53 AM 51.1 °F 46.0 °F 83% 30.07 in 0.5 mi Calm Calm - N/A   Haze
2:57 AM 51.1 °F 45.0 °F 80% 30.09 in 0.2 mi Calm Calm - N/A   Haze
3:05 AM 50.0 °F 45.0 °F 83% 30.09 in 0.2 mi SE 3.5 mph - N/A   Haze
3:19 AM 50.0 °F 45.0 °F 83% 30.09 in 0.2 mi SE 3.5 mph - N/A   Haze
3:53 AM 48.9 °F 45.0 °F 86% 30.06 in 0.2 mi SE 3.5 mph - N/A Fog Fog
4:53 AM 51.1 °F 46.0 °F 83% 30.05 in 0.2 mi SE 3.5 mph - N/A   Haze
5:53 AM 48.0 °F 44.1 °F 86% 30.04 in 0.2 mi SE 3.5 mph - N/A Fog Fog
6:06 AM 50.0 °F 45.0 °F 83% 30.06 in 0.2 mi Calm Calm - N/A   Haze
6:15 AM 52.0 °F 46.9 °F 83% 30.06 in 0.5 mi SE 3.5 mph - N/A   Haze
6:22 AM 53.1 °F 48.0 °F 83% 30.06 in 0.2 mi SSE 3.5 mph - N/A   Haze
6:35 AM 55.9 °F 51.1 °F 84% 30.06 in 1.0 mi SSE 3.5 mph - N/A   Haze
6:45 AM 54.0 °F 48.9 °F 83% 30.06 in 2.0 mi SE 3.5 mph - N/A   Haze
6:53 AM 53.1 °F 48.9 °F 86% 30.05 in 1.8 mi SE 4.6 mph - N/A   Mostly Cloudy
7:00 AM 54.0 °F 50.0 °F 86% 30.06 in 2.0 mi SE 3.5 mph - N/A   Overcast
7:14 AM 55.9 °F 51.1 °F 84% 30.07 in 1.8 mi South 3.5 mph - N/A   Haze
7:21 AM 57.9 °F 53.1 °F 84% 30.07 in 2.5 mi SE 4.6 mph - N/A   Haze
7:53 AM 59.0 °F 54.0 °F 83% 30.04 in 3.0 mi Calm Calm - N/A   Haze
8:53 AM 63.0 °F 57.0 °F 81% 30.04 in 4.0 mi ESE 3.5 mph - N/A   Haze
9:32 AM 66.9 °F 57.9 °F 73% 30.04 in 7.0 mi SE 8.1 mph - N/A   Scattered Clouds
9:53 AM 69.1 °F 57.9 °F 68% 30.03 in 8.0 mi SSE 6.9 mph - N/A   Clear
10:53 AM 71.1 °F 57.9 °F 63% 30.02 in 8.0 mi South 10.4 mph 16.1 mph N/A   Partly Cloudy
11:53 AM 73.0 °F 59.0 °F 61% 30.01 in 7.0 mi SSW 11.5 mph - N/A   Scattered Clouds
12:02 PM 72.0 °F 57.9 °F 61% 30.04 in 7.0 mi SW 10.4 mph 17.3 mph N/A   Mostly Cloudy
12:13 PM 73.0 °F 59.0 °F 61% 30.03 in 7.0 mi South 9.2 mph - N/A   Scattered Clouds
12:53 PM 73.9 °F 60.1 °F 62% 30.00 in 6.0 mi SW 9.2 mph 17.3 mph N/A   Haze
1:53 PM 75.9 °F 60.1 °F 58% 29.98 in 8.0 mi South 11.5 mph - N/A   Mostly Cloudy
2:50 PM 78.8 °F 60.8 °F 54% 29.98 in 7.0 mi SSE 10.4 mph 19.6 mph N/A   Scattered Clouds
2:53 PM 78.1 °F 60.1 °F 54% 29.94 in 7.0 mi South 10.4 mph 19.6 mph N/A   Scattered Clouds
3:53 PM 77.0 °F 59.0 °F 54% 29.94 in 8.0 mi South 6.9 mph - N/A   Overcast
4:53 PM 77.0 °F 60.1 °F 56% 29.92 in 9.0 mi South 5.8 mph - N/A   Overcast
5:53 PM 75.9 °F 60.1 °F 58% 29.91 in 10.0 mi South 6.9 mph - N/A   Scattered Clouds
6:53 PM 73.9 °F 60.1 °F 62% 29.90 in 9.0 mi South 3.5 mph - N/A   Clear
7:53 PM 71.1 °F 60.1 °F 68% 29.89 in 10.0 mi SSE 4.6 mph - N/A   Clear
8:53 PM 70.0 °F 60.1 °F 71% 29.89 in 10.0 mi SSE 4.6 mph - N/A   Clear
9:53 PM 69.1 °F 59.0 °F 70% 29.88 in 10.0 mi SSE 6.9 mph - N/A   Partly Cloudy
10:53 PM 69.1 °F 59.0 °F 70% 29.87 in 10.0 mi Variable 4.6 mph - N/A   Mostly Cloudy
11:53 PM 70.0 °F 57.9 °F 65% 29.85 in 10.0 mi South 8.1 mph - N/A   Overcast